This demonstration page uses our WeatherBlox Daily Observations layout. Learn more.

Left ArrowRight Arrow

-33.8178, 151.00348

Hourly Observations for January 24, 2015

Temp ( °F °C ) Dew Point ( °F °C ) Humidity (%) Winds ( mph kmh ) Pressure ( in mb ) Visibility ( mi km ) Precip ( " mm )
12:00 am 00:00 Mostly Clear 77 25 68 20 74 74 NNE 17 28 29.74 1007 7 11 N/A
12:30 am 00:30 Mostly Clear 77 25 68 20 74 74 NNE 18 30 29.71 1006 7 11 N/A
1:00 am 01:00 Mostly Clear 75 24 68 20 78 78 NNE 17 28 29.71 1006 7 11 N/A
1:30 am 01:30 Mostly Clear 75 24 68 20 78 78 NNE 18 30 29.71 1006 7 11 N/A
2:00 am 02:00 Mostly Clear 75 24 70 21 83 83 NNE 18 30 29.71 1006 7 11 N/A
2:30 am 02:30 Mostly Clear 75 24 68 20 78 78 NNE 17 28 29.71 1006 7 11 N/A
3:00 am 03:00 Mostly Clear 75 24 68 20 78 78 NNE 17 28 29.71 1006 7 11 N/A
3:30 am 03:30 Mostly Clear 75 24 68 20 78 78 NNE 15 24 29.71 1006 7 11 N/A
4:00 am 04:00 Mostly Clear 75 24 68 20 78 78 N 10 17 29.71 1006 7 11 N/A
4:30 am 04:30 Mostly Clear 75 24 68 20 78 78 NNE 10 17 29.71 1006 7 11 N/A
5:00 am 05:00 Mostly Clear 75 24 68 20 78 78 NNE 12 19 29.71 1006 7 11 N/A
5:30 am 05:30 Mostly Clear 75 24 68 20 78 78 NNE 13 20 29.71 1006 7 11 N/A
6:00 am 06:00 Mostly Clear 75 24 68 20 78 78 NNE 13 20 29.71 1006 7 11 N/A
6:30 am 06:30 Mostly Sunny 75 24 68 20 78 78 NNE 13 20 29.71 1006 7 11 N/A
7:00 am 07:00 Partly Cloudy 77 25 68 20 74 74 N 10 17 29.74 1007 30 48 N/A
7:30 am 07:30 Mostly Sunny 77 25 68 20 74 74 NNE 7 11 29.74 1007 7 11 N/A
8:00 am 08:00 Mostly Sunny 79 26 68 20 70 70 NNE 7 11 29.74 1007 7 11 N/A
8:30 am 08:30 Mostly Sunny 81 27 68 20 66 66 NNE 8 13 29.77 1008 7 11 N/A
9:00 am 09:00 Mostly Sunny 82 28 68 20 62 62 NNE 9 15 29.77 1008 30 48 N/A
9:30 am 09:30 Mostly Sunny 82 28 68 20 62 62 NE 12 19 29.77 1008 30 48 N/A
10:00 am 10:00 Mostly Sunny 81 27 68 20 66 66 NE 12 19 29.74 1007 30 48 N/A
10:30 am 10:30 Mostly Sunny 82 28 64 18 55 55 NNE 16 26 29.74 1007 30 48 N/A
11:00 am 11:00 Mostly Sunny 86 30 63 17 46 46 NE 21 33 29.74 1007 7 11 N/A
11:30 am 11:30 Mostly Sunny 86 30 63 17 46 46 NE 21 33 29.74 1007 7 11 N/A
12:00 pm 12:00 Mostly Sunny 84 29 63 17 48 48 NE 20 31 29.74 1007 7 11 N/A
12:30 pm 12:30 Mostly Sunny 88 31 63 17 43 43 NNE 21 33 29.71 1006 30 48 N/A
1:00 pm 13:00 Mostly Sunny 86 30 63 17 46 46 NE 21 33 29.71 1006 30 48 N/A
1:30 pm 13:30 Mostly Sunny 88 31 63 17 43 43 NE 20 31 29.71 1006 30 48 N/A
2:00 pm 14:00 Mostly Sunny 88 31 63 17 43 43 NE 21 33 29.68 1005 7 11 N/A
2:30 pm 14:30 Mostly Sunny 88 31 63 17 43 43 NE 21 33 29.68 1005 7 11 N/A
3:30 pm 15:30 Mostly Sunny 88 31 61 16 40 40 NE 22 35 29.65 1004 7 11 N/A
4:00 pm 16:00 Mostly Sunny 86 30 63 17 46 46 NE 24 39 29.65 1004 7 11 N/A
4:30 pm 16:30 Mostly Sunny 86 30 64 18 49 49 NE 22 35 29.62 1003 7 11 N/A
5:00 pm 17:00 Mostly Sunny 82 28 64 18 55 55 NE 24 39 29.62 1003 7 11 N/A
5:30 pm 17:30 Mostly Sunny 82 28 66 19 58 58 NE 20 31 29.62 1003 7 11 N/A
6:00 pm 18:00 Mostly Sunny 82 28 68 20 62 62 NE 21 33 29.62 1003 7 11 N/A
6:30 pm 18:30 Mostly Sunny 81 27 68 20 66 66 NE 18 30 29.62 1003 7 11 N/A
7:00 pm 19:00 Mostly Sunny 81 27 68 20 66 66 NE 21 33 29.65 1004 7 11 N/A
7:30 pm 19:30 Mostly Sunny 81 27 68 20 66 66 NE 14 22 29.65 1004 7 11 N/A
8:00 pm 20:00 Mostly Sunny 79 26 70 21 74 74 NNE 13 20 29.68 1005 7 11 N/A
8:30 pm 20:30 Mostly Clear 81 27 68 20 66 66 NNE 12 19 29.68 1005 7 11 N/A
9:00 pm 21:00 Mostly Clear 81 27 68 20 66 66 NNE 15 24 29.68 1005 7 11 N/A
9:19 pm 21:19 Mostly Cloudy with Thunderstorms 81 27 68 20 66 66 N 12 19 29.71 1006 30 48 N/A
9:30 pm 21:30 Mostly Cloudy with Thunderstorms 81 27 68 20 66 66 N 8 13 29.71 1006 30 48 N/A
10:00 pm 22:00 Mostly Cloudy with Thunderstorms 81 27 68 20 66 66 N 12 19 29.71 1006 30 48 N/A
10:30 pm 22:30 Mostly Cloudy with Drizzle 79 26 68 20 70 70 N 13 20 29.71 1006 30 48 N/A
11:00 pm 23:00 Mostly Cloudy with Light Showers 77 25 72 22 83 83 NE 9 15 29.68 1005 30 48 N/A
11:30 pm 23:30 Mostly Cloudy with Showers Nearby 75 24 72 22 89 89 NNE 9 15 29.68 1005 30 48 N/A

Powered by Vaisala Xweather